Location: Beekmeers
(50.8953°N, 3.6968°E)
Time: 03:50:39
(UTC+00:00)

Cosmos 1733 Rocket - Pass Details

Date: 23 May 2024
Orbit: 600 x 624 km, 82.5° (Epoch: 17 June)

Event Time Altitude Azimuth Distance (km) Brightness Sun altitude
Rises 00:23:47 0° 348° (NNW) 2,866 7.7 -17.9°
Reaches altitude 10° 00:26:00 10° 347° (NNW) 1,960 6.7 -17.8°
Maximum altitude 00:30:20 79° 262° (W) 623 2.9 -17.7°
Enters shadow 00:32:01 37° 181° (S) 955 3.5 -17.6°
